• In Latvia
  • List of Countries
  • For 7 days
  • Water Temperature
  • Satellite Maps
  • Weather Map
  • Weather Widgets
  • user-avatar
    Login

    Hourly Weather Jurmala

    Today, 21 August, Tuesday

    Time Temperature Precipitation Wind Pressure Humidity
    00:00 +16°C° 0.1 mm 5 mps 754 mmHg 92%
    01:00 +15°C° 0.1 mm 5 mps 755 mmHg 93%
    02:00 +14°C° 0 mm 4 mps 755 mmHg 94%
    03:00 +14°C° 0 mm 4 mps 755 mmHg 94%
    04:00 +14°C° 0 mm 4 mps 756 mmHg 94%
    05:00 +13°C° 0 mm 4 mps 756 mmHg 94%
    06:00 +14°C° 0 mm 4 mps 757 mmHg 88%
    07:00 +15°C° 0 mm 4 mps 757 mmHg 83%
    08:00 +16°C° 0 mm 5 mps 758 mmHg 77%
    09:00 +17°C° 0.1 mm 5 mps 758 mmHg 72%
    10:00 +17°C° 0.1 mm 5 mps 759 mmHg 67%
    11:00 +19°C° 0.1 mm 5 mps 759 mmHg 62%
    12:00 +20°C° 0.1 mm 5 mps 759 mmHg 59%
    13:00 +20°C° 0.1 mm 6 mps 760 mmHg 56%
    14:00 +20°C° 0.1 mm 6 mps 760 mmHg 54%
    15:00 +20°C° 0 mm 6 mps 761 mmHg 55%
    16:00 +19°C° 0 mm 6 mps 761 mmHg 57%
    17:00 +19°C° 0 mm 6 mps 761 mmHg 58%
    18:00 +17°C° 0 mm 5 mps 762 mmHg 64%
    19:00 +15°C° 0 mm 5 mps 762 mmHg 69%
    20:00 +14°C° 0 mm 4 mps 763 mmHg 75%
    21:00 +13°C° 0 mm 4 mps 763 mmHg 77%
    22:00 +12°C° 0 mm 4 mps 764 mmHg 78%
    23:00 +12°C° 0 mm 4 mps 764 mmHg 80%

    Tomorrow, 22 August, Wednesday

    Time Temperature Precipitation Wind Pressure Humidity
    00:00 +11°C° 0 mm 4 mps 764 mmHg 80%
    01:00 +11°C° 0 mm 3 mps 765 mmHg 81%
    02:00 +11°C° 0 mm 3 mps 765 mmHg 82%
    03:00 +10°C° 0 mm 3 mps 765 mmHg 83%
    04:00 +10°C° 0 mm 3 mps 765 mmHg 83%
    05:00 +10°C° 0 mm 3 mps 766 mmHg 84%
    06:00 +11°C° 0 mm 3 mps 766 mmHg 79%
    07:00 +13°C° 0 mm 3 mps 766 mmHg 73%
    08:00 +14°C° 0 mm 3 mps 766 mmHg 68%
    09:00 +17°C° 0 mm 3 mps 766 mmHg 62%
    10:00 +18°C° 0 mm 3 mps 767 mmHg 56%
    11:00 +20°C° 0 mm 3 mps 767 mmHg 51%
    12:00 +20°C° 0 mm 3 mps 766 mmHg 49%
    13:00 +21°C° 0 mm 3 mps 766 mmHg 48%
    14:00 +21°C° 0 mm 2 mps 766 mmHg 47%
    15:00 +21°C° 0 mm 3 mps 766 mmHg 48%
    16:00 +21°C° 0 mm 3 mps 766 mmHg 49%
    17:00 +21°C° 0 mm 3 mps 766 mmHg 51%
    18:00 +19°C° 0 mm 3 mps 766 mmHg 58%
    19:00 +18°C° 0 mm 3 mps 765 mmHg 65%
    20:00 +16°C° 0 mm 3 mps 765 mmHg 72%
    21:00 +14°C° 0 mm 3 mps 765 mmHg 73%
    22:00 +14°C° 0 mm 3 mps 765 mmHg 75%
    23:00 +13°C° 0 mm 4 mps 765 mmHg 76%

    Day after tomorrow, 23 August, Thursday

    Time Temperature Precipitation Wind Pressure Humidity
    00:00 +13°C° 0 mm 4 mps 765 mmHg 75%
    01:00 +13°C° 0 mm 4 mps 765 mmHg 74%
    02:00 +12°C° 0 mm 5 mps 764 mmHg 73%
    03:00 +12°C° 0 mm 5 mps 764 mmHg 73%
    04:00 +12°C° 0 mm 5 mps 764 mmHg 72%
    05:00 +12°C° 0 mm 5 mps 764 mmHg 71%
    06:00 +13°C° 0 mm 5 mps 763 mmHg 70%
    07:00 +14°C° 0 mm 5 mps 763 mmHg 69%
    08:00 +15°C° 0 mm 5 mps 763 mmHg 67%
    09:00 +17°C° 0 mm 5 mps 763 mmHg 63%
    10:00 +20°C° 0 mm 5 mps 763 mmHg 59%
    11:00 +22°C° 0 mm 5 mps 762 mmHg 55%
    12:00 +23°C° 0 mm 5 mps 762 mmHg 53%
    13:00 +25°C° 0 mm 5 mps 762 mmHg 51%
    14:00 +26°C° 0 mm 5 mps 762 mmHg 49%
    15:00 +25°C° 0 mm 5 mps 761 mmHg 51%
    16:00 +25°C° 0 mm 4 mps 761 mmHg 53%
    17:00 +25°C° 0 mm 4 mps 761 mmHg 55%
    18:00 +23°C° 0 mm 4 mps 761 mmHg 62%
    19:00 +21°C° 0 mm 4 mps 760 mmHg 70%
    20:00 +19°C° 0 mm 4 mps 760 mmHg 77%
    21:00 +19°C° 0 mm 4 mps 760 mmHg 77%
    22:00 +18°C° 0 mm 4 mps 760 mmHg 78%
    23:00 +18°C° 0 mm 4 mps 760 mmHg 78%

    24 August, Friday

    Time Temperature Precipitation Wind Pressure Humidity
    00:00 +18°C° 0 mm 4 mps 760 mmHg 79%
    01:00 +17°C° 0 mm 4 mps 759 mmHg 81%
    02:00 +17°C° 0 mm 4 mps 759 mmHg 82%
    03:00 +17°C° 0 mm 4 mps 759 mmHg 83%
    04:00 +15°C° 0 mm 4 mps 759 mmHg 84%
    05:00 +15°C° 0 mm 4 mps 758 mmHg 86%
    06:00 +17°C° 0 mm 4 mps 758 mmHg 83%
    07:00 +17°C° 0 mm 5 mps 758 mmHg 80%
    08:00 +19°C° 0 mm 5 mps 758 mmHg 77%
    09:00 +20°C° 0 mm 5 mps 757 mmHg 74%
    10:00 +21°C° 0 mm 5 mps 757 mmHg 72%
    11:00 +23°C° 0 mm 5 mps 757 mmHg 69%
    12:00 +24°C° 0.1 mm 6 mps 756 mmHg 66%
    13:00 +26°C° 0.1 mm 6 mps 756 mmHg 62%
    14:00 +28°C° 0.1 mm 6 mps 756 mmHg 58%
    15:00 +27°C° 0.3 mm 6 mps 755 mmHg 60%
    16:00 +27°C° 0.3 mm 5 mps 755 mmHg 63%
    17:00 +27°C° 0.3 mm 5 mps 755 mmHg 66%
    18:00 +25°C° 0.6 mm 5 mps 755 mmHg 72%
    19:00 +23°C° 0.6 mm 5 mps 754 mmHg 78%
    20:00 +21°C° 0.6 mm 4 mps 754 mmHg 84%
    21:00 +21°C° 0.4 mm 4 mps 754 mmHg 85%
    22:00 +20°C° 0.4 mm 4 mps 754 mmHg 87%
    23:00 +20°C° 0.4 mm 4 mps 754 mmHg 88%

    25 August, Saturday

    Time Temperature Precipitation Wind Pressure Humidity
    00:00 +19°C° 0.6 mm 4 mps 753 mmHg 91%
    01:00 +19°C° 0.6 mm 3 mps 753 mmHg 93%
    02:00 +19°C° 0.6 mm 3 mps 753 mmHg 96%
    03:00 +19°C° 0.9 mm 3 mps 753 mmHg 96%
    04:00 +19°C° 0.9 mm 3 mps 753 mmHg 97%
    05:00 +18°C° 0.9 mm 3 mps 752 mmHg 97%
    06:00 +19°C° 1.6 mm 3 mps 752 mmHg 97%
    07:00 +19°C° 1.6 mm 3 mps 753 mmHg 96%
    08:00 +19°C° 1.6 mm 3 mps 753 mmHg 96%
    09:00 +19°C° 0.3 mm 3 mps 753 mmHg 93%
    10:00 +19°C° 0.3 mm 3 mps 754 mmHg 89%
    11:00 +20°C° 0.3 mm 3 mps 754 mmHg 86%
    12:00 +20°C° 0.3 mm 2 mps 755 mmHg 85%
    13:00 +19°C° 0.3 mm 2 mps 755 mmHg 85%
    14:00 +19°C° 0.3 mm 2 mps 756 mmHg 84%
    15:00 +19°C° 0.3 mm 2 mps 756 mmHg 86%
    16:00 +18°C° 0.3 mm 2 mps 756 mmHg 88%
    17:00 +18°C° 0.3 mm 2 mps 756 mmHg 90%
    18:00 +18°C° 0.2 mm 1 mps 757 mmHg 91%
    19:00 +16°C° 0.2 mm 1 mps 757 mmHg 91%
    20:00 +16°C° 0.2 mm 1 mps 758 mmHg 92%
    21:00 +15°C° 0 mm 1 mps 758 mmHg 92%
    22:00 +15°C° 0 mm 1 mps 758 mmHg 93%
    23:00 +14°C° 0 mm 1 mps 759 mmHg 93%

    26 August, Sunday

    Time Temperature Precipitation Wind Pressure Humidity
    00:00 +14°C° 0 mm 1 mps 759 mmHg 93%
    01:00 +13°C° 0 mm 1 mps 759 mmHg 93%
    02:00 +13°C° 0 mm 1 mps 759 mmHg 93%
    03:00 +13°C° 0 mm 1 mps 759 mmHg 93%
    04:00 +13°C° 0 mm 1 mps 759 mmHg 93%
    05:00 +13°C° 0 mm 1 mps 760 mmHg 92%
    06:00 +14°C° 0 mm 1 mps 760 mmHg 91%
    07:00 +14°C° 0 mm 1 mps 760 mmHg 90%
    08:00 +15°C° 0 mm 1 mps 760 mmHg 89%
    09:00 +15°C° 0.5 mm 1 mps 760 mmHg 90%
    10:00 +15°C° 0.5 mm 1 mps 760 mmHg 91%
    11:00 +15°C° 0.5 mm 2 mps 760 mmHg 92%
    12:00 +15°C° 0.6 mm 2 mps 760 mmHg 92%
    13:00 +13°C° 0.6 mm 3 mps 760 mmHg 91%
    14:00 +13°C° 0.6 mm 4 mps 759 mmHg 91%
    15:00 +13°C° 1.5 mm 4 mps 759 mmHg 92%
    16:00 +13°C° 1.5 mm 4 mps 759 mmHg 93%
    17:00 +12°C° 1.5 mm 4 mps 758 mmHg 93%
    18:00 +12°C° 0.9 mm 4 mps 758 mmHg 94%
    19:00 +12°C° 0.9 mm 5 mps 758 mmHg 94%
    20:00 +12°C° 0.9 mm 5 mps 758 mmHg 94%
    21:00 +12°C° 1.4 mm 5 mps 758 mmHg 95%
    22:00 +10°C° 1.4 mm 5 mps 757 mmHg 95%
    23:00 +10°C° 1.4 mm 5 mps 757 mmHg 95%
    Show more